• In Romania
  • List of Countries
  • For 7 days
  • Water Temperature
  • Satellite Maps
  • Weather Map
  • Weather Widgets
  • user-avatar
    Login

    Hourly Weather Ravda

    Today, 18 December, Monday

    Time Temperature Precipitation Wind Pressure Humidity
    00:00 +2°C° 0 mm 7 mps 760 mmHg 83%
    01:00 +2°C° 0 mm 7 mps 760 mmHg 83%
    02:00 +2°C° 0 mm 7 mps 761 mmHg 83%
    03:00 +2°C° 0 mm 6 mps 761 mmHg 83%
    04:00 +1°C° 0 mm 6 mps 762 mmHg 84%
    05:00 +1°C° 0 mm 6 mps 762 mmHg 84%
    06:00 +1°C° 0 mm 5 mps 763 mmHg 85%
    07:00 +1°C° 0 mm 4 mps 763 mmHg 87%
    08:00 +1°C° 0 mm 4 mps 763 mmHg 88%
    09:00 +1°C° 0 mm 4 mps 763 mmHg 84%
    10:00 +3°C° 0 mm 3 mps 764 mmHg 80%
    11:00 +4°C° 0 mm 3 mps 764 mmHg 75%
    12:00 +5°C° 0 mm 3 mps 764 mmHg 74%
    13:00 +5°C° 0 mm 3 mps 764 mmHg 72%
    14:00 +5°C° 0 mm 3 mps 764 mmHg 70%
    15:00 +5°C° 0 mm 3 mps 764 mmHg 72%
    16:00 +5°C° 0 mm 3 mps 764 mmHg 74%
    17:00 +4°C° 0 mm 3 mps 764 mmHg 76%
    18:00 +4°C° 0.1 mm 4 mps 764 mmHg 79%
    19:00 +4°C° 0.1 mm 4 mps 764 mmHg 81%
    20:00 +3°C° 0.1 mm 4 mps 764 mmHg 83%
    21:00 +2°C° 0.5 mm 5 mps 764 mmHg 83%
    22:00 +2°C° 0.5 mm 5 mps 764 mmHg 82%
    23:00 +2°C° 0.5 mm 6 mps 764 mmHg 82%

    Tomorrow, 19 December, Tuesday

    Time Temperature Precipitation Wind Pressure Humidity
    00:00 +1°C° 0.6 mm 6 mps 764 mmHg 83%
    01:00 0°C° 0.6 mm 7 mps 765 mmHg 83%
    02:00 0°C° 0.6 mm 7 mps 765 mmHg 84%
    03:00 0°C° 0.7 mm 7 mps 765 mmHg 85%
    04:00 -1°C° 0.7 mm 7 mps 765 mmHg 87%
    05:00 -1°C° 0.7 mm 8 mps 765 mmHg 89%
    06:00 -1°C° 0.8 mm 8 mps 766 mmHg 90%
    07:00 -2°C° 0.8 mm 8 mps 766 mmHg 91%
    08:00 -2°C° 0.8 mm 8 mps 767 mmHg 92%
    09:00 -2°C° 0.5 mm 8 mps 767 mmHg 91%
    10:00 -2°C° 0.5 mm 8 mps 768 mmHg 91%
    11:00 -2°C° 0.5 mm 7 mps 769 mmHg 90%
    12:00 -1°C° 0.3 mm 7 mps 769 mmHg 90%
    13:00 -1°C° 0.3 mm 7 mps 769 mmHg 89%
    14:00 -1°C° 0.3 mm 6 mps 769 mmHg 89%
    15:00 -1°C° 0.2 mm 6 mps 769 mmHg 90%
    16:00 -1°C° 0.2 mm 5 mps 770 mmHg 90%
    17:00 -1°C° 0.2 mm 5 mps 770 mmHg 91%
    18:00 -1°C° 0.1 mm 5 mps 770 mmHg 91%
    19:00 -1°C° 0.1 mm 4 mps 771 mmHg 92%
    20:00 -1°C° 0.1 mm 4 mps 771 mmHg 92%
    21:00 -1°C° 0 mm 4 mps 772 mmHg 93%
    22:00 -2°C° 0 mm 4 mps 772 mmHg 93%
    23:00 -2°C° 0 mm 4 mps 772 mmHg 93%

    Day after tomorrow, 20 December, Wednesday

    Time Temperature Precipitation Wind Pressure Humidity
    00:00 -2°C° 0 mm 4 mps 772 mmHg 93%
    01:00 -1°C° 0 mm 3 mps 772 mmHg 93%
    02:00 -1°C° 0 mm 3 mps 772 mmHg 93%
    03:00 -2°C° 0 mm 3 mps 772 mmHg 93%
    04:00 -2°C° 0 mm 3 mps 772 mmHg 93%
    05:00 -2°C° 0 mm 3 mps 772 mmHg 93%
    06:00 -2°C° 0 mm 3 mps 772 mmHg 93%
    07:00 -2°C° 0 mm 3 mps 772 mmHg 93%
    08:00 -2°C° 0 mm 3 mps 772 mmHg 93%
    09:00 -1°C° 0 mm 3 mps 772 mmHg 91%
    10:00 0°C° 0 mm 3 mps 773 mmHg 89%
    11:00 +1°C° 0 mm 3 mps 773 mmHg 87%
    12:00 +1°C° 0 mm 3 mps 772 mmHg 86%
    13:00 +1°C° 0 mm 3 mps 772 mmHg 86%
    14:00 +1°C° 0 mm 3 mps 772 mmHg 85%
    15:00 +1°C° 0 mm 3 mps 772 mmHg 86%
    16:00 0°C° 0 mm 3 mps 772 mmHg 88%
    17:00 -1°C° 0 mm 3 mps 772 mmHg 90%
    18:00 -1°C° 0 mm 3 mps 772 mmHg 89%
    19:00 -2°C° 0 mm 3 mps 773 mmHg 89%
    20:00 -2°C° 0 mm 3 mps 773 mmHg 89%
    21:00 -2°C° 0 mm 3 mps 773 mmHg 88%
    22:00 -4°C° 0 mm 3 mps 773 mmHg 86%
    23:00 -4°C° 0 mm 3 mps 773 mmHg 85%

    21 December, Thursday

    Time Temperature Precipitation Wind Pressure Humidity
    00:00 -4°C° 0 mm 3 mps 773 mmHg 85%
    01:00 -4°C° 0 mm 3 mps 773 mmHg 84%
    02:00 -4°C° 0 mm 3 mps 773 mmHg 84%
    03:00 -4°C° 0 mm 3 mps 773 mmHg 83%
    04:00 -3°C° 0 mm 2 mps 773 mmHg 83%
    05:00 -3°C° 0 mm 2 mps 773 mmHg 83%
    06:00 -3°C° 0 mm 2 mps 773 mmHg 83%
    07:00 -3°C° 0 mm 2 mps 774 mmHg 83%
    08:00 -3°C° 0 mm 2 mps 774 mmHg 82%
    09:00 -2°C° 0 mm 2 mps 774 mmHg 78%
    10:00 -1°C° 0 mm 2 mps 774 mmHg 74%
    11:00 +1°C° 0 mm 2 mps 774 mmHg 71%
    12:00 +1°C° 0 mm 3 mps 774 mmHg 69%
    13:00 +1°C° 0 mm 3 mps 773 mmHg 68%
    14:00 +1°C° 0 mm 3 mps 773 mmHg 67%
    15:00 0°C° 0 mm 3 mps 773 mmHg 71%
    16:00 -1°C° 0 mm 3 mps 773 mmHg 75%
    17:00 -2°C° 0 mm 3 mps 772 mmHg 79%
    18:00 -2°C° 0 mm 3 mps 773 mmHg 80%
    19:00 -2°C° 0 mm 3 mps 773 mmHg 81%
    20:00 -4°C° 0 mm 3 mps 773 mmHg 82%
    21:00 -4°C° 0 mm 3 mps 773 mmHg 82%
    22:00 -4°C° 0 mm 3 mps 773 mmHg 81%
    23:00 -4°C° 0 mm 4 mps 773 mmHg 80%

    22 December, Friday

    Time Temperature Precipitation Wind Pressure Humidity
    00:00 -4°C° 0 mm 4 mps 772 mmHg 79%
    01:00 -4°C° 0 mm 4 mps 772 mmHg 79%
    02:00 -4°C° 0 mm 4 mps 772 mmHg 78%
    03:00 -4°C° 0 mm 4 mps 771 mmHg 79%
    04:00 -5°C° 0 mm 4 mps 771 mmHg 79%
    05:00 -5°C° 0 mm 4 mps 771 mmHg 79%
    06:00 -5°C° 0 mm 4 mps 771 mmHg 78%
    07:00 -5°C° 0 mm 4 mps 771 mmHg 77%
    08:00 -5°C° 0 mm 3 mps 771 mmHg 76%
    09:00 -2°C° 0 mm 3 mps 770 mmHg 73%
    10:00 -2°C° 0 mm 4 mps 770 mmHg 69%
    11:00 0°C° 0 mm 4 mps 770 mmHg 65%
    12:00 0°C° 0 mm 4 mps 769 mmHg 65%
    13:00 +1°C° 0 mm 4 mps 769 mmHg 65%
    14:00 +1°C° 0 mm 4 mps 768 mmHg 65%
    15:00 0°C° 0 mm 4 mps 768 mmHg 69%
    16:00 -1°C° 0 mm 5 mps 768 mmHg 73%
    17:00 -2°C° 0 mm 5 mps 767 mmHg 77%
    18:00 -2°C° 0 mm 5 mps 767 mmHg 77%
    19:00 -2°C° 0 mm 5 mps 767 mmHg 76%
    20:00 -2°C° 0 mm 5 mps 767 mmHg 76%
    21:00 -1°C° 0 mm 5 mps 766 mmHg 78%
    22:00 -2°C° 0 mm 6 mps 766 mmHg 81%
    23:00 -1°C° 0 mm 6 mps 766 mmHg 83%

    23 December, Saturday

    Time Temperature Precipitation Wind Pressure Humidity
    00:00 -1°C° 0 mm 6 mps 766 mmHg 84%
    01:00 -1°C° 0 mm 7 mps 766 mmHg 85%
    02:00 -1°C° 0 mm 7 mps 766 mmHg 87%
    03:00 -1°C° 0 mm 7 mps 766 mmHg 88%
    04:00 -2°C° 0 mm 7 mps 766 mmHg 89%
    05:00 -2°C° 0 mm 6 mps 766 mmHg 90%
    06:00 -2°C° 0 mm 6 mps 766 mmHg 90%
    07:00 -1°C° 0 mm 5 mps 766 mmHg 89%
    08:00 -2°C° 0 mm 5 mps 766 mmHg 89%
    09:00 -1°C° 0 mm 5 mps 766 mmHg 84%
    10:00 +1°C° 0 mm 5 mps 765 mmHg 79%
    11:00 +2°C° 0 mm 6 mps 765 mmHg 74%
    12:00 +2°C° 0 mm 5 mps 765 mmHg 73%
    13:00 +3°C° 0 mm 5 mps 764 mmHg 72%
    14:00 +3°C° 0 mm 5 mps 763 mmHg 70%
    15:00 +2°C° 0 mm 5 mps 763 mmHg 74%
    16:00 +1°C° 0 mm 4 mps 763 mmHg 78%
    17:00 -1°C° 0 mm 4 mps 762 mmHg 82%
    18:00 -1°C° 0 mm 4 mps 762 mmHg 82%
    19:00 -1°C° 0 mm 4 mps 762 mmHg 82%
    20:00 0°C° 0 mm 3 mps 762 mmHg 82%
    21:00 -1°C° 0 mm 4 mps 762 mmHg 82%
    22:00 -1°C° 0 mm 4 mps 761 mmHg 82%
    23:00 -1°C° 0 mm 4 mps 761 mmHg 82%
    Show more